User: anonymous
Location: Potawatomi Wildlife Park
(41.2308°N, 86.1050°W)
Time: 04:58:27
(UTC-04:00)
Language:

SL-16 R/B - Orbit

View from above orbital plane
View from above orbital plane
View from above satellite
View from above satellite

Ground track
Ground track

The orbit data is extracted from the following two-line orbital elements,

1 27006U 01056F   14205.07443980 -.00000081  00000-0 -44174-4 0  1867
2 27006 099.1699 011.2937 0014743 192.2773 303.2436 13.70915313631377
Epoch (UTC): 24 July 2014 01:47:11
Eccentricity: 0.0014743
inclination: 99.1699°
perigee height: 985 km
apogee height: 1007 km
right ascension of ascending node: 11.2937°
argument of perigee: 192.2773°
revolutions per day: 13.70915313
mean anomaly at epoch: 303.2436°
orbit number at epoch: 63137

The dashed part of the orbit path shows where the satellite is in the earth's shadow,  

DLR